CLUSTER II-FM5 (RUMBA)

Last updated on Sat Apr 13 2024 01:03:19 GMT+0100 (British Summer Time)

1 26463U 00045A 24106.01085319 .00000778 00000+0 00000+0 0 9990 2 26463 149.3410 15.0198 8418878 230.2735 0.6002 0.44225008 16690
UTC large
Height (km)
Speed (km/s)
/
Latitude / Longitude
Inclination (degrees)
Orbital Period (minutes)
Azimuth
Elevation
Range (km)
Doppler Factor

Next 0 passes for location: London (51.5072 / 0.1276)

Sorry there are no passes over London.